Time,TemperatureF,DewpointF,PressureIn,WindDirection,WindDirectionDegrees,WindSpeedMPH,WindSpeedGustMPH,Humidity,HourlyPrecipIn,Conditions,Clouds,dailyrainin,SoftwareType,DateUTC
2013-03-27 00:00:00,31.0,31.0,-100.00,North,0,0.0,3.0,100,-99.99,,,-99.99,,2013-03-27 07:00:00,
2013-03-27 01:00:00,31.0,30.0,-100.00,North,-999,0.0,0.0,96,-99.99,,,-99.99,,2013-03-27 08:00:00,
2013-03-27 02:00:00,31.0,29.0,-100.00,North,0,0.0,3.0,93,-99.99,,,-99.99,,2013-03-27 09:00:00,
2013-03-27 03:00:00,30.0,30.0,-100.00,North,0,0.0,1.0,99,-99.99,,,-99.99,,2013-03-27 10:00:00,
2013-03-27 04:00:00,30.0,30.0,-100.00,North,0,0.0,3.0,100,-99.99,,,-99.99,,2013-03-27 11:00:00,
2013-03-27 05:00:00,30.0,29.0,-100.00,North,0,0.0,2.0,95,-99.99,,,-99.99,,2013-03-27 12:00:00,
2013-03-27 06:00:00,31.0,29.0,-100.00,North,0,0.0,3.0,92,-99.99,,,-99.99,,2013-03-27 13:00:00,
2013-03-27 07:00:00,31.0,28.0,-100.00,North,0,0.0,1.0,89,-99.99,,,-99.99,,2013-03-27 14:00:00,
2013-03-27 08:00:00,31.0,29.0,-100.00,North,-999,0.0,0.0,93,-99.99,,,-99.99,,2013-03-27 15:00:00,
2013-03-27 10:00:00,35.0,31.0,-100.00,North,0,0.0,2.0,86,-99.99,,,-99.99,,2013-03-27 17:00:00,
2013-03-27 11:00:00,35.0,31.0,-100.00,North,0,0.0,3.0,85,-99.99,,,-99.99,,2013-03-27 18:00:00,
2013-03-27 12:00:00,35.0,31.0,-100.00,North,0,0.0,3.0,85,-99.99,,,-99.99,,2013-03-27 19:00:00,
2013-03-27 14:00:00,37.0,32.0,-100.00,North,0,0.0,2.0,81,-99.99,,,-99.99,,2013-03-27 21:00:00,
2013-03-27 15:00:00,37.0,33.0,-100.00,NW,311,1.0,6.0,85,-99.99,,,-99.99,,2013-03-27 22:00:00,
2013-03-27 16:00:00,36.0,34.0,-100.00,North,0,0.0,3.0,92,-99.99,,,-99.99,,2013-03-27 23:00:00,
2013-03-27 17:00:00,35.0,34.0,-100.00,North,0,0.0,3.0,96,-99.99,,,-99.99,,2013-03-28 00:00:00,
2013-03-27 18:00:00,34.0,33.0,-100.00,North,0,0.0,3.0,97,-99.99,,,-99.99,,2013-03-28 01:00:00,
2013-03-27 19:00:00,34.0,33.0,-100.00,NW,322,2.0,6.0,96,-99.99,,,-99.99,,2013-03-28 02:00:00,
2013-03-27 21:00:00,34.0,33.0,-100.00,North,-999,0.0,0.0,96,-99.99,,,-99.99,,2013-03-28 04:00:00,
2013-03-27 22:00:00,33.0,33.0,-100.00,North,0,0.0,3.0,100,-99.99,,,-99.99,,2013-03-28 05:00:00,
2013-03-27 23:00:00,32.0,32.0,-100.00,NW,315,1.0,3.0,100,-99.99,,,-99.99,,2013-03-28 06:00:00,